COSMOS 2296 (GLONASS)

Satellite information

Favourite Embed

Satellite Type and Status

PAYLOADIN ORBIT

Key statistics

Satellite COSMOS 2296 (GLONASS) at a glance.

Uptime

11347

Days in orbit

Revolutions

≈ 2.1

Per day

Orbit

MEO

Medium Earth Orbit

Inclination

64.7

Latest

Satellite identification and parameters

Extended collection of information and parameters for COSMOS 2296 (GLONASS).

Object identification

Identified? True

Debris? False

Object name: COSMOS 2296 (GLONASS)

International designator: 1994-076B

Object number (NORAD): 23397

Object ID (CCSDS): 23397

Country: COMMONWEALTH OF INDEPENDENT STATES (CIS)

Current information (Y/N): Y

RCS size: LARGE

Orbital parameters

Period: 675.741 minutes

Inclination: 64.7263 deg

SMA: 25508.227 km

Apoapsis: 19157.098 km

Periapsis: 19103.087 km

RAAN: 75.5091 deg

Eccentricy: 0.0010587

Argument of periapsis: 254.8862 deg

Mean anomaly: 155.2257 deg

Mean motion: 2.13099456 rev/day

Mean motion (dot): -0.00000021 rev/day2

B* drag term: 0.0 1/REarth

Two-line elements (TLE)

Creation date: Dec. 9, 2025, 3:16 p.m.

Reference frame: TEME

Reference center: EARTH

Epoch: Dec. 9, 2025, 6:31 a.m. UTC

TLE line 0: 0 COSMOS 2296 (GLONASS)

TLE line 1: 1 23397U 94076B 25343.27203567 -.00000021 00000-0 00000+0 0 9992

TLE line 2: 2 23397 64.7263 75.5091 0010587 254.8862 155.2257 2.13099456241448

Live tracking on map

Real-time ground track for satellite COSMOS 2296 (GLONASS).

In-orbit conjunctions

A list of the most updated potential collisions computed for object COSMOS 2296 (GLONASS).

Target Orbit TCA Probability of collision Miss distance Type
COSMOS 1712 (GLONASS) MEO 2025-10-19 03:18:58 TBA 781.0 (m) PAYLOAD

Associated space launch

GLONASS navigation satellites

COSMOS 2296 (GLONASS) was lifted into orbit during the mission ‘Proton | Uragan 60 to 62’, on board a Proton space rocket.

The launch took place on Nov. 20, 1994, 12:39 a.m. from 200/39 (200L).

For more information about the launch, click the button.

Launch to space Proton | Uragan 60 to 62
Proton | Uragan 60 to 62

Agency: N/A

Status: Launch Successful

Launch date: Nov. 20, 1994, 12:39 a.m. UTC

Rocket: Proton

Launch pad: 200/39 (200L)

Location: Baikonur Cosmodrome, Republic of Kazakhstan

...

Latest news about this satellite

There are no fresh news available about this satellite. Check back as we update our databases every day.


Newsletter sign-up

Weekly statistics, charts and insights to help you stay on top of the space industry.